GFSCGP_500_spd_000.txt.gz
Wind_Speed
35 35 33 25 16 15 18 16 18 15 16 22 22 26 35 36 31 26 25 35 31 33 28 26 27 29 30 30 27 26 26 28 25 27 25 27 23 19 20 23 23 23 13 10
38 40 30 25 26 25 25 22 22 22 23 28 28 30 35 31 20 19 22 22 25 30 24 25 26 29 29 26 26 24 25 25 24 25 23 22 18 18 18 22 23 19 12 8
40 30 29 29 30 30 31 26 23 21 23 24 24 30 25 18 22 25 24 25 22 22 21 23 22 25 24 23 23 22 25 24 23 23 23 19 19 17 19 19 21 16 16 7
36 32 33 31 34 29 28 19 17 24 25 26 19 25 23 21 18 24 31 27 20 19 18 19 19 22 22 22 22 20 23 22 20 20 21 20 16 16 18 19 19 19 14 10
23 30 33 31 30 27 24 18 21 29 25 27 28 29 16 13 13 20 32 38 22 18 19 18 19 23 21 21 21 20 20 20 18 17 17 16 14 19 17 15 15 18 17 15
30 28 30 27 24 25 23 22 30 27 23 29 21 18 11 6 15 23 33 30 22 20 20 17 20 18 17 18 17 20 18 16 16 14 14 16 17 20 16 10 16 18 16 13
35 33 28 28 31 27 26 33 30 27 28 25 14 17 17 16 24 29 24 18 21 18 15 16 19 16 14 17 15 18 15 13 14 11 12 14 16 16 14 12 17 18 17 10
36 37 34 29 29 30 34 32 29 28 23 11 15 15 20 23 25 22 18 14 18 16 14 17 18 13 14 15 14 15 13 11 12 10 11 12 14 16 14 15 18 11 11 10
38 34 27 31 31 33 34 31 22 24 17 18 15 15 19 29 24 28 22 15 15 16 15 18 16 11 15 11 14 15 14 11 9 7 9 11 15 14 15 16 23 13 10 9
39 32 31 24 30 35 32 26 29 26 25 24 20 16 18 28 28 20 22 20 16 15 15 16 11 10 13 9 12 14 13 8 8 6 9 11 11 12 12 17 18 12 10 11
42 33 31 31 42 36 33 36 36 26 22 18 16 11 16 28 24 29 30 18 13 14 14 12 6 10 6 8 11 14 11 9 10 4 9 10 10 11 13 17 21 13 12 13
46 46 37 40 36 36 28 31 34 28 23 23 18 12 25 23 24 29 26 16 15 14 12 7 5 7 5 7 10 13 11 9 10 9 7 9 9 11 12 17 20 14 12 16
45 51 46 34 34 44 38 35 33 31 30 26 23 18 24 29 27 20 27 18 12 11 10 3 4 5 6 7 9 11 12 10 8 12 12 11 12 12 12 13 19 13 13 13
46 48 52 49 43 43 39 37 35 34 35 32 26 15 19 33 23 24 23 13 10 11 9 4 4 5 5 6 9 10 10 11 10 11 11 12 12 12 14 11 16 22 17 13
42 51 48 42 39 40 41 39 35 37 34 32 21 23 21 24 22 19 22 23 16 9 9 5 3 4 3 5 7 9 9 10 8 9 8 9 9 10 12 12 12 17 18 13
46 51 47 42 41 38 39 40 35 33 34 35 28 27 20 22 19 15 27 25 18 11 8 7 3 3 3 3 5 7 7 9 9 8 8 8 9 10 11 11 7 10 16 17
44 50 52 49 42 37 40 41 40 35 34 34 31 27 25 17 19 21 29 23 23 10 8 8 5 1 3 3 2 4 5 6 7 7 7 9 9 10 10 11 11 11 16 18
48 51 53 50 41 51 46 40 41 38 38 35 32 29 25 25 22 23 23 25 20 11 7 7 8 4 2 2 2 2 3 4 6 7 7 9 10 10 10 14 16 16 17 16
52 52 57 54 49 47 47 39 34 37 39 38 37 35 28 27 28 26 23 23 23 8 9 7 12 7 4 2 1 1 2 3 2 4 6 9 11 13 13 14 13 13 14 15
52 50 51 53 52 50 41 41 33 33 42 36 38 39 30 29 31 23 20 22 24 15 10 8 12 11 9 7 4 3 3 1 1 3 5 8 11 13 14 13 11 10 10 12
50 50 58 49 39 38 46 31 33 50 47 40 40 39 33 34 33 16 18 24 22 19 13 10 13 13 10 9 8 4 3 4 1 4 6 7 8 10 11 11 11 10 8 7
51 46 58 58 48 45 31 36 38 43 39 44 41 38 31 35 31 27 31 25 24 26 13 10 12 17 13 12 10 8 6 5 6 3 6 6 6 6 8 7 5 5 6 7
46 46 45 55 65 41 42 35 33 41 36 40 41 39 34 33 31 31 34 28 29 17 16 13 10 13 14 17 15 12 9 7 8 8 7 7 7 5 5 4 4 5 5 7
48 52 41 54 49 52 48 44 39 30 31 36 36 43 39 32 32 33 30 27 21 19 20 16 15 11 11 16 18 18 12 9 10 11 10 9 9 8 6 6 5 4 3 2
63 73 65 56 43 46 45 42 40 41 40 41 37 31 32 34 33 31 29 28 23 22 21 18 17 17 15 16 21 21 16 13 12 13 14 13 11 11 10 10 9 7 5 3
55 52 52 55 60 51 42 52 39 45 48 47 45 45 38 34 33 29 31 25 25 26 24 19 19 21 20 22 23 25 26 20 18 16 16 19 17 17 16 15 15 13 13 12

GFSCGP_500_spd_003.txt.gz
Wind_Speed
35 43 35 27 23 21 21 24 21 16 7 17 28 19 22 27 34 30 32 19 25 31 30 29 23 26 25 25 26 25 23 24 26 27 26 26 25 21 21 19 22 23 21 16
41 39 33 28 29 25 25 25 21 19 12 16 22 24 26 30 36 34 29 24 20 19 22 23 23 21 22 23 25 21 22 23 24 25 25 26 26 21 20 20 21 22 19 15
43 34 34 33 33 32 27 27 17 23 17 25 32 37 35 28 26 24 20 25 21 21 27 23 22 20 20 23 24 21 21 22 22 24 23 22 22 19 22 19 16 19 15 16
47 40 39 38 37 33 31 22 22 22 15 21 23 27 24 19 20 13 16 27 30 27 30 22 20 19 21 23 21 19 20 19 21 21 19 20 21 22 22 14 13 17 20 17
34 31 36 39 33 30 26 22 20 11 13 22 27 28 15 20 14 15 19 27 32 31 21 19 18 17 20 19 16 16 18 16 18 18 16 18 21 21 14 13 15 19 20 13
32 27 35 33 28 28 22 21 15 13 22 31 25 25 9 9 14 21 26 27 31 20 16 16 15 18 20 15 16 15 15 15 16 14 14 17 17 14 13 14 19 20 15 11
32 30 27 29 33 29 16 16 22 26 34 17 16 20 8 7 12 20 25 25 22 15 17 17 16 17 16 15 13 14 14 14 15 10 12 15 14 13 15 18 24 14 13 9
33 35 32 28 30 30 25 31 31 32 28 10 4 13 5 13 16 20 20 18 20 15 16 17 16 16 14 15 11 12 14 15 13 8 11 12 15 14 19 21 19 17 14 10
37 31 26 29 28 30 30 36 24 29 27 17 8 11 17 19 21 20 22 23 24 17 18 16 17 12 11 10 9 12 13 10 10 7 9 12 14 16 18 20 19 14 15 12
37 34 26 26 27 31 35 30 36 33 32 24 18 20 18 24 21 23 20 22 21 13 18 13 13 8 12 7 9 12 10 10 9 6 10 11 13 14 17 20 17 17 14 13
38 37 31 29 34 34 36 38 40 33 26 23 17 14 12 23 22 22 24 25 24 16 16 13 11 9 5 5 10 11 9 10 10 8 8 9 11 13 20 20 20 19 16 17
44 42 40 36 30 28 33 40 37 34 26 22 18 14 15 18 22 24 21 22 20 9 10 8 6 9 4 6 11 11 10 9 11 13 11 10 10 12 17 22 16 18 20 20
42 46 43 39 37 34 36 34 32 35 24 22 21 19 23 23 26 23 19 20 18 6 7 3 6 7 2 6 10 10 11 11 8 13 12 12 14 14 17 21 20 21 21 23
39 45 51 48 42 40 44 37 34 35 29 26 24 16 25 22 24 21 19 19 12 7 6 2 4 7 1 5 10 10 10 12 9 9 12 10 13 15 17 17 20 16 16 16
40 46 50 47 41 39 41 37 35 31 32 32 20 20 25 23 23 29 27 19 4 5 7 2 0 6 2 4 9 11 11 10 8 8 8 10 11 14 14 16 18 18 17 17
53 45 51 52 48 45 46 41 37 31 33 32 23 23 24 19 23 30 27 21 4 7 9 4 4 3 1 4 7 10 11 11 9 9 9 11 12 13 14 15 17 20 21 22
57 47 53 56 49 45 40 48 38 33 32 31 28 21 23 28 29 28 27 23 16 5 7 5 6 2 1 3 6 8 9 11 11 9 10 10 11 13 16 17 19 21 21 17
58 53 50 55 51 56 51 31 36 36 30 28 30 22 19 20 23 25 26 23 19 7 8 7 7 5 2 3 4 7 8 10 11 9 9 10 12 16 19 19 20 21 22 23
59 58 53 54 59 57 50 46 43 40 33 32 30 26 22 18 26 26 25 22 19 8 8 7 7 7 6 2 3 6 9 8 9 8 8 10 13 15 17 17 16 16 16 18
57 60 57 58 58 61 51 41 23 29 36 36 33 30 27 29 27 26 25 23 19 17 10 8 8 14 7 6 2 4 8 10 10 10 8 9 11 13 14 15 16 18 17 16
58 61 54 58 59 56 51 49 28 35 46 39 38 32 29 30 25 21 21 23 22 20 12 10 9 14 11 8 6 4 7 10 11 11 11 9 10 9 10 11 12 12 13 13
61 61 59 54 55 55 44 39 41 37 37 37 37 33 27 25 24 23 24 28 28 19 9 13 15 17 15 12 9 7 6 8 11 12 11 10 10 9 7 5 4 6 9 11
58 64 64 57 50 55 51 43 34 32 39 40 40 38 36 29 29 23 29 31 30 21 13 18 18 19 14 15 13 10 7 9 11 12 12 11 10 10 8 6 6 7 10 12
63 62 61 64 60 55 47 50 49 39 28 34 36 32 32 31 30 25 30 33 30 22 15 16 18 14 11 12 15 14 11 9 10 13 13 12 12 11 9 8 9 10 9 8
70 63 60 67 57 64 48 40 57 48 42 45 39 36 31 29 30 28 30 31 27 23 21 20 20 19 17 12 10 13 14 12 11 12 14 14 13 13 11 9 9 9 9 8
46 67 59 75 75 62 61 52 51 44 42 37 34 26 26 25 30 35 31 30 25 22 25 22 21 22 23 19 17 18 17 15 13 12 13 16 15 14 13 13 12 12 10 8

GFSCGP_500_spd_006.txt.gz
Wind_Speed
59 62 60 46 38 30 31 28 24 16 19 25 22 25 16 13 21 19 20 21 22 20 14 24 28 27 29 27 24 25 28 26 26 27 25 26 24 26 21 22 22 19 21 20
43 49 41 38 33 35 32 29 28 18 21 27 23 24 18 13 22 24 22 22 22 23 19 24 30 29 27 24 23 26 27 26 27 24 25 25 24 24 25 24 19 17 18 20
30 29 36 34 34 34 32 32 21 21 20 28 24 23 21 18 20 22 21 20 22 22 26 30 31 32 24 21 24 25 23 23 25 22 24 21 22 24 22 19 14 15 20 19
35 32 34 36 37 36 39 28 22 23 23 26 24 24 22 20 19 20 17 19 17 21 28 30 36 26 19 20 24 22 22 22 20 20 20 20 22 25 17 16 18 19 19 15
35 36 39 40 36 38 38 27 25 22 26 21 25 26 8 10 13 12 11 10 16 21 26 31 23 15 16 21 18 21 20 18 18 20 16 18 20 19 19 18 24 21 13 10
47 45 43 40 40 40 30 33 29 30 30 32 16 14 3 7 12 8 9 13 20 22 20 16 16 14 16 19 18 19 18 15 16 18 14 17 19 18 22 22 18 17 11 8
46 48 45 40 42 40 39 39 37 35 37 19 13 13 0 8 10 8 9 15 17 26 18 17 16 15 16 17 20 17 15 14 16 14 12 14 18 18 23 21 15 14 9 8
37 37 39 33 38 41 44 39 40 37 27 14 16 16 2 9 12 8 10 16 19 29 15 14 13 14 14 14 16 14 12 11 13 8 10 13 17 19 20 17 12 11 7 6
37 36 30 32 28 37 39 37 27 28 21 26 17 17 13 13 13 8 10 15 19 19 14 15 11 13 11 16 12 11 8 10 11 8 11 13 13 16 18 14 12 10 7 7
35 32 28 24 30 31 35 31 36 32 28 25 19 19 17 12 15 10 10 15 18 22 14 16 12 10 12 10 9 9 6 8 10 7 9 9 12 14 16 16 14 10 9 10
43 39 32 34 35 34 37 41 39 29 28 24 17 14 9 15 20 16 13 17 18 24 13 11 7 7 9 6 7 7 5 7 9 8 7 8 10 14 18 13 15 14 11 13
44 45 37 34 35 29 30 34 34 31 31 27 20 14 20 18 13 9 13 15 20 23 7 9 5 8 5 4 6 6 6 5 10 10 9 11 12 13 18 15 16 16 14 14
46 47 43 42 39 37 40 39 39 34 30 27 24 13 20 19 8 10 10 10 18 22 6 11 7 6 3 2 4 6 8 7 9 10 11 12 13 14 17 15 14 18 19 15
60 55 49 48 43 37 39 40 37 35 34 25 26 17 18 13 11 9 13 11 13 21 5 10 7 6 2 1 3 6 6 6 8 8 9 9 11 13 16 16 13 14 16 19
62 60 55 47 42 39 37 36 35 35 27 27 21 20 20 16 11 13 15 10 8 10 5 6 7 5 2 2 2 6 5 5 8 8 9 9 11 13 15 16 15 16 17 18
63 57 54 49 45 43 43 42 37 34 30 27 21 22 21 21 20 19 15 7 4 9 9 5 7 4 1 4 2 4 5 7 7 8 11 11 9 14 16 18 20 20 17 17
63 60 57 55 49 46 52 47 42 36 32 28 24 16 25 22 22 20 14 10 8 8 9 7 8 6 1 3 4 3 5 7 8 7 11 12 13 16 18 19 19 18 15 15
63 64 62 56 51 59 53 46 43 37 30 28 25 20 21 27 21 20 17 12 7 6 10 8 9 8 3 2 4 4 4 6 8 8 13 16 16 18 19 20 21 22 25 23
64 67 63 58 59 58 54 48 46 42 38 31 26 22 24 26 24 23 18 7 6 5 9 10 9 10 6 3 1 4 5 4 6 9 12 15 16 15 14 16 18 20 22 24
61 61 61 61 61 62 55 46 42 31 44 37 30 27 24 28 26 17 14 11 3 3 10 14 11 14 9 4 2 2 5 6 6 8 11 12 15 15 14 14 17 19 20 22
63 61 60 58 57 64 56 36 47 44 38 27 31 29 24 26 20 18 19 16 9 6 4 13 13 14 13 7 6 5 5 9 8 8 9 10 10 14 16 14 14 14 15 16
68 64 64 59 48 61 64 55 48 41 39 31 26 31 25 20 21 23 21 19 18 7 5 9 15 13 15 15 8 8 6 8 11 10 9 9 8 10 12 12 11 12 13 14
68 68 71 64 49 57 52 63 57 44 38 44 34 31 27 25 25 25 22 21 21 13 8 8 16 17 12 16 11 9 8 8 12 14 12 10 9 8 10 11 13 13 15 16
57 72 71 69 55 53 55 60 59 53 41 44 35 37 32 31 28 26 25 24 22 20 10 9 19 17 12 15 14 13 11 9 9 15 15 14 13 12 10 10 13 14 13 12
46 73 72 74 62 51 56 60 57 50 45 48 43 35 32 33 33 33 29 28 24 20 14 15 17 18 16 18 11 12 17 14 11 12 15 15 14 14 13 11 12 13 13 11
55 66 76 76 61 54 58 64 56 55 57 59 53 41 41 37 29 30 31 31 28 22 15 20 23 20 20 21 19 13 16 18 15 13 12 16 17 16 14 13 13 13 13 12

GFSCGP_500_spd_009.txt.gz
Wind_Speed
60 62 58 57 53 56 55 49 41 24 17 31 33 32 18 27 29 23 14 12 10 17 13 19 21 24 30 35 33 29 27 30 31 31 31 29 30 30 30 31 27 23 20 21
43 45 47 51 54 56 52 49 37 24 14 34 31 31 23 27 27 19 12 9 11 15 12 16 23 30 34 38 34 26 26 27 28 29 28 28 30 28 32 27 20 20 21 24
43 28 31 33 40 46 47 43 29 22 18 35 36 32 26 26 21 13 9 10 11 12 15 18 27 34 38 40 28 24 25 25 27 27 26 28 26 25 24 23 23 25 29 27
45 38 34 30 33 37 39 24 24 26 27 33 38 40 27 26 13 15 12 10 7 11 14 18 24 29 33 29 22 21 22 26 25 25 25 26 24 24 23 25 25 26 23 17
44 37 35 33 26 28 24 27 29 28 31 35 35 40 15 21 14 14 12 3 4 7 15 18 22 22 20 20 21 21 23 24 24 24 24 24 22 22 21 24 24 20 19 16
47 42 36 30 29 37 34 32 31 32 37 47 30 39 11 17 18 11 4 3 9 9 16 25 18 19 21 19 19 19 21 22 23 23 23 19 19 21 23 23 21 17 15 11
51 52 42 36 39 40 41 39 38 41 47 49 27 34 15 18 14 10 5 4 10 12 20 20 16 18 17 17 15 18 19 20 19 21 16 16 19 20 21 19 17 15 12 8
46 47 48 41 41 39 39 41 45 48 50 39 29 28 15 19 11 9 5 5 8 13 19 17 15 14 14 11 15 16 18 16 18 18 15 17 18 16 19 14 16 14 10 4
47 43 43 41 41 40 38 47 41 43 39 39 38 23 27 14 5 3 3 3 9 16 23 18 14 14 12 12 14 15 15 15 18 16 13 15 13 16 16 13 15 8 9 7
47 43 39 37 35 38 41 46 43 45 44 42 30 27 20 12 8 5 4 4 10 19 23 12 13 13 8 12 11 14 13 12 15 12 10 10 10 17 13 12 8 11 9 11
53 47 38 38 39 40 43 47 44 42 39 35 26 22 18 14 13 8 5 4 10 18 15 10 12 10 11 8 9 12 9 10 11 11 7 9 9 15 13 13 13 12 11 13
59 53 43 36 43 39 42 39 36 37 31 30 27 20 22 17 11 7 6 1 15 14 15 10 11 10 11 6 8 9 7 6 9 8 7 9 9 12 10 16 13 11 12 13
66 58 49 43 47 43 42 37 39 36 35 35 29 22 21 16 8 6 6 2 12 15 16 9 10 8 9 5 7 6 4 5 7 9 6 7 9 12 9 14 15 12 12 12
70 64 56 53 47 41 41 44 43 41 39 27 25 23 21 19 13 12 5 6 7 12 9 10 8 7 6 4 6 6 3 6 8 6 3 7 8 12 9 12 13 16 14 11
70 65 57 51 46 44 43 40 39 38 30 34 22 24 23 20 16 11 7 2 4 7 9 9 7 5 6 3 5 6 4 5 7 7 4 6 9 12 14 14 15 14 13 13
70 67 62 57 51 47 47 44 41 38 34 30 23 23 20 19 18 14 9 3 2 5 10 6 6 3 6 3 5 6 5 5 6 6 6 6 9 14 15 15 14 14 13 11
68 67 65 59 53 50 54 49 43 36 35 30 28 21 24 22 14 12 8 4 1 2 5 5 6 3 4 4 5 5 4 5 6 5 6 11 12 13 14 12 10 11 11 14
71 68 65 60 57 60 53 47 42 38 34 29 24 19 20 21 18 14 13 8 2 1 4 5 4 3 3 3 5 5 3 4 6 5 10 15 15 15 16 18 19 15 15 15
73 73 68 63 60 59 54 48 46 43 38 31 27 21 17 14 24 25 17 11 6 5 3 5 3 5 6 2 3 5 4 2 6 7 7 12 12 12 13 16 19 21 20 18
68 70 71 67 61 62 59 53 49 44 42 37 31 25 18 19 29 21 15 12 10 7 4 5 5 4 8 5 2 5 4 2 4 7 8 7 8 10 14 16 18 19 19 23
63 66 67 62 62 63 58 55 49 46 45 39 37 32 30 29 20 20 18 14 13 8 8 6 3 6 9 9 5 4 5 4 3 6 8 10 10 11 14 16 16 16 17 17
55 61 60 54 58 59 56 55 51 48 43 40 36 35 35 25 22 25 19 17 16 13 9 4 3 6 7 13 10 5 6 5 6 6 7 8 11 10 10 13 13 12 12 12
45 65 62 50 57 61 59 53 57 52 46 43 34 40 36 30 30 25 20 18 15 14 12 9 6 4 7 9 13 9 7 7 6 10 7 7 9 9 10 11 13 14 16 16
41 66 66 54 52 59 55 60 59 56 51 47 41 37 34 34 32 25 21 20 19 15 14 12 10 7 3 6 10 12 10 9 7 8 11 9 7 11 11 13 14 16 15 15
30 63 69 61 54 58 53 60 55 56 59 53 46 44 40 39 37 33 22 21 19 18 17 15 15 12 7 7 11 9 14 12 10 7 11 12 10 10 10 12 14 14 14 14
34 59 65 65 57 62 61 58 66 61 51 48 43 41 38 36 39 35 31 27 24 22 18 21 20 18 12 10 11 13 10 16 14 11 10 12 12 13 12 12 14 15 14 13

GFSCGP_500_spd_012.txt.gz
Wind_Speed
51 51 53 53 60 64 65 61 57 49 46 42 39 37 32 24 36 27 27 27 26 20 16 15 19 19 16 23 28 35 38 32 31 30 30 31 32 32 33 29 28 28 26 26
52 47 37 44 49 53 56 55 52 44 42 44 38 39 33 25 27 29 29 22 20 16 15 16 20 17 21 28 31 36 35 28 29 28 30 30 30 32 31 29 27 28 29 31
49 35 36 34 35 40 45 44 41 42 43 43 35 42 35 23 28 31 25 20 17 16 13 17 18 18 19 28 30 30 27 26 25 26 29 29 30 32 29 28 27 30 32 28
52 45 43 41 33 28 34 28 35 39 37 38 35 47 33 26 28 27 19 23 17 15 11 13 15 18 20 20 23 26 25 24 24 25 28 30 31 29 27 27 29 30 30 24
50 50 48 41 29 26 28 31 35 39 37 41 37 46 24 24 22 17 19 16 15 14 12 13 15 17 19 19 22 23 23 22 22 24 27 28 27 24 27 27 28 29 24 19
52 45 44 39 34 32 29 27 24 38 40 52 33 37 19 18 15 22 18 13 13 12 12 11 14 16 19 17 18 21 19 19 21 24 24 25 23 24 25 28 28 23 18 15
57 53 47 47 40 38 36 35 32 39 44 47 24 37 18 11 18 21 16 14 16 8 12 9 13 15 16 12 14 16 17 18 20 21 25 25 23 24 22 26 22 18 13 8
56 54 51 47 46 37 31 33 37 35 33 33 24 40 9 18 20 21 20 19 12 9 10 12 15 15 16 13 13 15 16 19 19 21 25 21 21 20 24 23 20 12 9 6
58 56 48 44 44 38 33 40 35 35 35 33 32 30 16 27 23 18 18 12 10 6 10 15 14 12 11 10 13 13 17 18 17 20 20 16 17 19 20 17 11 8 8 8
61 59 51 44 45 42 41 36 38 39 38 38 36 24 17 25 19 23 14 11 5 3 10 14 11 9 8 12 9 13 16 15 15 18 14 14 15 17 16 12 9 9 10 10
62 61 52 47 48 46 49 47 46 41 44 40 37 21 17 26 21 18 15 12 5 4 12 10 8 8 9 10 9 13 14 14 13 15 13 13 14 15 13 12 9 11 9 11
65 61 53 48 44 40 39 44 41 42 40 33 25 23 23 29 25 16 15 12 3 5 9 9 6 8 10 9 8 12 11 11 11 14 11 12 13 15 9 12 10 10 9 10
69 66 56 53 49 46 45 40 41 44 40 33 26 18 26 24 24 18 15 10 2 5 5 6 8 6 10 5 7 11 9 9 13 12 10 12 12 13 7 11 9 11 9 8
72 68 61 55 49 41 45 44 45 45 42 31 23 24 26 30 23 16 13 10 3 3 3 6 9 4 9 3 6 10 10 10 12 11 7 10 11 8 8 9 12 10 9 8
75 68 61 56 51 47 50 43 43 44 31 32 25 26 27 27 21 14 14 12 6 1 3 4 7 2 7 4 5 9 11 9 9 10 8 8 9 10 12 8 10 11 10 9
75 70 64 57 53 47 50 47 45 40 31 29 30 32 23 24 19 15 20 13 6 1 4 3 3 1 5 6 4 8 9 9 7 8 9 7 9 8 9 9 9 9 9 8
75 72 68 61 55 51 53 48 43 41 35 34 32 30 27 26 23 18 19 13 7 3 1 3 2 2 3 6 6 6 8 8 7 9 9 8 9 12 11 6 8 9 10 10
74 74 70 66 59 57 49 46 43 37 34 30 32 31 26 26 20 16 19 13 9 5 2 4 3 2 2 5 7 6 6 8 7 9 9 9 10 14 16 12 12 13 11 14
67 74 72 67 62 55 52 48 48 43 39 36 34 34 32 30 22 19 19 14 11 8 4 1 3 2 3 2 6 6 5 6 5 7 6 7 8 11 14 18 15 14 15 15
57 70 73 67 61 59 59 52 48 41 40 37 34 37 35 35 31 21 16 14 13 11 7 2 4 2 3 3 3 5 5 4 3 4 4 5 9 10 12 14 18 21 19 19
40 46 59 65 62 62 64 56 46 45 44 41 37 38 36 34 26 19 14 16 17 14 8 4 4 5 4 5 2 3 4 2 2 4 4 6 9 12 13 13 14 17 18 17
36 44 49 55 61 61 55 50 51 51 46 43 41 39 39 35 28 24 19 20 21 17 10 4 4 6 4 5 6 3 2 1 2 3 5 4 7 9 8 8 9 11 14 14
40 37 50 50 60 61 57 55 54 50 47 45 43 39 40 38 32 28 25 24 25 20 15 11 8 7 7 5 6 9 4 1 3 5 5 6 5 7 6 4 8 11 13 15
39 38 39 55 58 56 53 53 57 50 49 45 43 41 39 36 38 31 27 28 25 24 20 15 11 8 9 9 8 8 7 3 3 5 7 6 6 7 8 8 9 12 14 16
38 34 40 52 58 54 55 54 52 57 54 50 43 42 38 36 38 33 28 27 25 22 22 21 17 11 11 12 10 9 9 6 6 4 6 8 8 10 9 9 10 10 11 11
33 28 36 49 55 53 55 54 56 54 55 52 47 41 39 36 39 34 30 27 26 23 20 20 20 17 14 13 11 12 10 8 10 7 6 8 11 14 13 11 12 12 11 9

GFSCGP_500_spd_015.txt.gz
Wind_Speed
56 61 56 51 55 57 58 59 58 57 55 56 54 54 52 35 38 34 34 30 28 23 26 27 25 24 22 23 23 20 22 25 29 37 35 33 31 30 30 31 32 31 30 30
62 58 43 49 51 49 48 51 53 49 49 51 51 49 47 38 37 34 28 26 25 26 27 26 24 21 23 23 19 22 24 27 31 34 32 31 29 29 31 32 31 31 31 34
65 47 48 48 43 44 43 42 39 40 40 45 46 50 49 40 38 33 26 26 20 24 25 24 22 20 21 21 19 22 24 27 31 31 30 28 28 29 31 29 30 32 33 33
67 58 54 47 48 46 40 29 24 30 30 39 43 53 45 37 37 29 23 22 21 25 19 21 19 22 22 17 19 21 23 26 27 28 26 26 28 29 26 28 30 31 32 27
65 65 61 50 45 39 31 25 22 25 31 38 41 48 34 28 24 23 23 23 24 19 23 20 21 21 14 15 16 19 21 23 24 24 23 25 28 28 27 29 27 28 26 23
66 62 56 50 46 40 38 32 31 31 35 42 36 39 34 16 20 20 21 26 18 21 18 16 20 18 13 16 17 19 18 20 20 22 22 25 28 25 26 25 29 25 23 16
67 67 63 57 55 50 45 41 38 38 42 35 32 39 9 15 9 18 23 18 21 17 15 14 18 13 13 16 15 17 18 18 19 21 22 26 24 22 22 25 23 20 14 7
68 67 65 59 54 50 48 39 40 32 32 32 28 35 19 17 12 14 16 17 21 18 14 14 12 10 12 12 13 15 17 17 17 17 22 21 18 19 21 20 18 16 7 4
69 66 62 56 49 45 42 42 35 32 33 24 30 23 14 18 14 18 11 18 20 18 14 12 7 9 10 8 13 12 14 15 14 17 20 16 17 18 18 17 15 7 7 9
70 71 62 56 51 45 43 38 36 37 36 32 31 25 13 17 19 16 16 21 22 17 11 7 5 8 8 10 10 9 13 13 12 17 16 15 16 17 16 18 8 6 9 10
69 68 65 61 57 50 50 48 46 41 34 33 25 22 10 19 19 14 22 24 20 12 10 6 4 7 7 10 6 9 12 12 12 15 16 15 16 17 14 10 4 8 9 10
68 66 61 58 56 48 45 43 39 37 34 31 21 16 15 22 24 19 22 23 18 11 4 4 2 6 5 5 5 9 11 10 13 15 14 14 15 12 10 9 5 9 8 11
69 67 62 57 56 53 50 48 46 45 38 33 23 12 17 22 25 22 18 22 14 11 2 1 2 5 5 1 4 8 11 11 13 13 11 12 14 8 9 9 7 8 10 9
68 67 65 59 52 53 53 49 50 50 45 32 27 16 20 27 27 25 22 21 12 8 4 2 2 2 3 1 4 9 11 11 11 12 11 10 10 10 9 12 9 8 10 10
63 65 62 58 59 54 51 48 48 48 41 33 26 24 31 29 30 23 23 17 10 7 4 2 2 2 3 2 4 8 11 12 10 10 9 9 8 11 10 8 9 10 9 9
63 62 60 56 56 56 52 46 48 44 37 29 27 35 34 32 27 26 24 16 11 9 2 2 2 4 4 4 5 7 11 11 9 9 9 8 7 8 8 8 6 8 9 8
63 64 61 59 56 54 55 47 46 45 32 32 39 35 36 32 27 28 22 15 12 10 4 3 3 6 5 5 6 7 9 10 8 9 10 11 12 10 10 8 8 11 10 13
55 66 61 59 57 55 47 47 43 38 31 30 46 47 42 36 33 31 25 16 12 12 6 7 4 6 6 5 6 7 8 8 7 8 10 12 12 13 11 11 11 15 14 12
48 63 63 59 59 52 49 45 44 40 37 38 51 47 42 37 32 28 26 20 13 13 8 10 6 7 8 5 6 7 6 7 5 7 9 11 12 13 17 13 16 16 16 14
41 53 60 60 57 54 55 50 41 38 38 40 50 50 44 38 33 32 29 23 19 14 12 10 10 8 8 7 5 7 6 6 4 5 8 10 11 13 17 20 18 20 19 17
27 39 48 60 59 57 52 50 45 41 43 43 50 49 46 39 35 34 32 25 19 16 12 9 11 9 9 9 5 5 5 4 5 4 7 9 11 13 14 14 14 15 17 23
23 28 38 51 60 58 48 48 50 47 43 42 42 46 43 39 39 36 33 29 20 17 15 9 8 11 9 10 7 4 4 2 5 5 5 7 8 9 10 11 10 12 14 16
25 26 28 40 55 55 52 57 49 43 43 41 39 44 42 39 39 35 33 33 25 22 20 14 9 10 10 10 10 6 3 3 4 5 5 6 5 4 6 7 8 8 10 14
22 29 26 29 43 53 56 53 54 46 41 42 39 44 42 38 37 34 31 32 30 26 23 18 14 10 12 11 10 10 7 4 5 6 6 5 6 5 6 10 11 13 14 15
26 26 25 24 32 41 51 56 47 49 46 42 40 41 40 38 36 34 33 31 31 30 26 22 17 13 12 13 11 12 11 9 7 5 7 6 7 8 7 11 13 13 14 15
34 24 26 26 28 42 45 49 53 44 45 47 42 41 41 39 39 38 35 32 31 30 29 26 21 17 16 15 13 15 12 12 12 8 7 10 9 11 10 11 12 12 11 11

GFSCGP_500_spd_021.txt.gz
Wind_Speed
66 69 63 52 54 52 57 60 58 50 47 41 47 46 44 49 44 43 41 46 49 43 46 42 39 33 32 30 28 28 28 29 30 30 31 35 38 41 42 44 38 38 37 37
75 70 46 55 51 57 55 55 50 48 48 37 45 48 45 46 46 43 43 42 48 43 39 36 35 30 32 28 26 27 30 30 31 32 35 38 41 41 41 40 36 37 40 38
76 55 59 57 58 57 53 52 47 44 43 38 43 50 42 43 43 43 36 39 46 38 31 32 32 27 29 26 23 26 29 30 32 33 36 38 38 38 36 36 37 37 37 34
73 63 66 63 61 55 51 46 46 47 48 45 35 46 41 42 38 38 41 40 35 28 29 26 29 26 27 23 24 26 28 30 31 32 32 33 33 31 33 33 36 33 30 30
65 67 71 71 57 56 47 41 44 46 47 40 42 47 40 38 37 33 30 31 29 27 26 25 25 27 24 25 25 28 31 32 31 31 30 30 28 26 30 29 27 29 26 23
67 64 67 67 66 61 50 46 47 46 43 46 40 49 38 29 34 23 25 26 23 25 27 25 24 23 22 24 26 29 32 32 30 27 26 23 22 25 23 24 25 23 21 14
66 68 69 66 70 65 60 54 46 46 48 43 39 44 34 26 30 27 25 20 25 29 20 22 20 20 20 23 26 30 30 26 25 21 20 18 20 18 21 22 21 17 14 12
54 65 68 65 68 69 67 62 59 54 46 40 39 42 28 23 23 15 11 17 19 20 21 20 19 19 20 23 26 26 22 22 18 18 15 17 15 16 19 16 12 12 11 7
40 56 59 69 70 72 69 63 48 39 25 29 23 24 25 20 15 12 13 14 16 16 18 18 17 18 21 24 24 21 19 16 15 13 12 14 13 16 13 11 8 8 8 4
32 43 52 53 70 69 57 53 48 50 46 31 22 20 12 17 18 15 14 15 17 16 16 15 16 20 21 20 20 17 15 13 12 10 13 14 12 12 8 6 5 5 3 4
39 42 48 55 56 69 68 52 58 45 38 32 24 20 25 23 28 18 11 15 14 15 14 15 19 20 20 17 15 14 11 11 10 11 14 11 11 6 5 2 3 3 2 3
34 48 36 45 39 62 62 51 55 57 47 32 24 21 24 22 25 20 16 15 12 12 13 16 17 18 17 14 12 9 9 9 9 12 9 9 8 3 2 1 3 3 3 3
37 49 44 50 46 48 46 51 50 50 36 33 24 22 20 28 23 21 22 14 13 14 16 17 16 17 14 12 8 7 8 8 9 9 5 7 4 1 1 2 3 4 4 4
35 50 54 27 44 38 46 49 46 51 42 33 31 18 25 25 27 23 21 18 17 15 17 16 16 15 12 9 6 6 7 8 7 5 4 4 2 1 2 2 3 4 6 7
29 41 59 25 50 49 47 47 46 50 39 33 31 23 24 21 30 27 25 21 18 17 16 16 14 12 11 6 6 6 6 5 4 1 4 8 4 0 2 4 4 4 7 9
19 40 51 38 48 51 48 45 43 45 44 33 23 29 22 23 26 29 28 24 21 18 13 13 10 10 8 5 4 4 4 1 1 3 6 8 2 1 1 1 4 6 7 9
22 38 52 32 40 44 41 48 44 41 43 34 27 32 38 20 35 34 38 29 23 19 15 10 9 10 6 4 3 4 2 2 1 3 6 8 4 5 5 3 5 8 7 8
28 49 30 35 36 37 36 43 39 36 38 35 28 39 37 43 46 46 37 33 28 21 15 10 11 12 8 3 3 3 2 2 3 5 6 9 5 6 5 7 9 8 8 8
26 53 51 21 26 34 30 35 34 35 39 48 49 39 52 52 39 41 33 30 28 25 18 12 11 13 10 4 3 3 3 3 4 6 7 9 7 8 7 7 7 4 3 2
25 43 56 30 36 31 31 44 47 48 51 52 52 54 48 32 42 42 34 32 31 25 19 14 12 13 11 6 4 2 4 4 5 6 7 11 13 13 11 7 8 10 11 8
22 29 34 51 26 30 29 33 39 42 44 44 42 44 48 48 51 40 37 36 31 25 20 16 14 13 13 8 4 2 4 5 6 7 8 11 12 12 13 14 10 7 9 12
17 20 33 34 39 23 24 29 45 53 46 42 43 43 49 54 48 41 39 37 31 26 20 17 17 14 11 12 7 3 4 6 7 7 8 9 11 11 11 11 13 13 12 11
18 18 28 37 41 31 38 32 51 48 45 42 43 42 51 58 51 43 41 37 32 27 22 19 17 14 10 12 10 6 3 6 7 8 7 6 7 8 10 11 10 12 14 16
17 19 25 39 53 26 43 39 36 40 38 37 40 48 55 58 52 45 43 40 33 29 23 20 18 14 10 11 13 10 5 4 8 8 9 8 7 8 11 11 11 11 12 14
17 18 22 33 40 42 28 37 33 37 38 37 37 47 58 56 52 47 44 42 36 32 27 21 21 16 14 12 12 13 9 6 7 9 9 8 8 9 11 14 15 15 17 19
13 14 17 25 28 35 39 33 37 35 36 33 36 45 59 56 51 48 44 40 37 33 29 25 24 18 16 14 13 12 11 10 8 10 11 11 11 11 13 13 14 15 16 18

GFSCGP_500_spd_024.txt.gz
Wind_Speed
69 71 64 51 58 52 53 50 54 53 46 46 41 43 36 40 39 38 43 38 36 40 40 40 47 38 42 37 34 34 35 35 27 27 29 31 31 33 38 42 45 46 46 44
75 71 48 59 54 55 59 60 57 49 48 45 36 41 42 39 38 40 38 38 36 38 40 45 42 37 38 30 32 31 34 28 27 27 29 32 34 36 40 41 43 43 42 44
70 55 60 59 59 62 57 56 51 48 46 44 35 44 39 35 39 40 39 41 36 38 38 39 35 40 32 25 25 29 27 25 27 28 31 34 34 35 35 37 39 38 38 40
67 59 62 64 63 62 59 52 51 48 47 52 39 49 34 33 35 36 38 33 33 32 29 28 31 32 24 23 25 24 24 24 27 30 32 34 34 33 33 34 36 37 32 33
60 61 63 68 57 61 53 46 48 45 46 43 47 45 19 31 32 36 35 27 28 28 26 25 26 28 20 22 21 22 24 26 29 31 33 31 31 30 30 32 30 32 33 29
63 60 65 62 62 64 56 52 47 44 40 43 34 39 24 25 34 29 26 27 33 29 24 24 29 18 22 19 18 22 25 26 30 30 27 27 25 26 28 26 27 30 28 22
62 65 67 62 64 64 63 57 51 48 48 44 25 38 29 26 29 25 21 26 29 27 23 24 19 17 18 15 18 21 22 26 27 25 25 21 22 26 24 23 25 24 18 16
44 58 64 66 65 62 64 64 62 59 53 46 39 41 31 29 23 17 22 23 19 23 20 14 16 18 15 16 18 20 23 24 23 22 19 20 21 21 22 24 20 18 14 11
37 40 55 61 65 57 51 60 56 51 40 41 33 28 28 26 12 15 18 12 13 9 13 15 17 15 16 17 17 20 21 22 21 17 17 18 19 20 19 19 17 13 10 6
40 38 51 62 58 67 50 48 57 52 46 37 32 19 13 24 18 17 14 16 13 12 13 15 16 15 16 15 17 19 19 20 15 16 15 18 20 17 17 16 11 8 5 4
41 43 34 53 59 60 61 54 57 49 48 46 31 15 18 27 26 20 20 15 13 16 16 14 16 16 13 15 17 16 17 13 13 14 15 19 16 15 13 12 9 7 3 4
36 38 37 44 42 44 55 58 58 60 53 44 31 22 27 24 17 20 22 21 17 16 14 14 13 10 13 15 12 14 12 11 13 13 15 15 14 11 10 8 7 6 3 1
31 34 31 36 46 51 54 55 56 56 41 43 33 24 27 26 21 22 21 25 17 14 13 11 11 12 14 12 13 11 9 11 12 13 13 12 8 10 6 6 5 5 4 3
26 35 35 31 38 47 41 44 50 39 50 38 31 21 27 23 26 24 29 21 18 17 12 11 12 13 12 12 12 8 8 10 11 10 9 8 10 7 5 6 5 4 4 5
18 29 42 44 35 50 44 48 46 46 45 43 33 30 13 24 25 32 22 23 22 14 13 13 14 11 11 10 8 7 8 8 9 6 8 8 10 8 6 4 5 4 4 7
11 20 37 43 37 51 51 55 52 42 38 37 30 34 23 29 30 20 25 23 19 19 18 15 12 10 8 7 7 6 6 5 5 5 7 8 7 6 7 6 5 5 4 6
14 17 24 39 25 26 54 58 52 46 36 40 28 35 33 23 21 25 27 25 23 21 19 14 11 8 7 5 5 4 4 4 4 6 6 7 3 4 2 3 5 6 4 6
12 19 22 38 20 26 40 46 44 41 39 36 23 30 33 37 32 40 41 37 31 24 20 15 9 6 7 4 4 3 2 2 3 4 5 6 3 4 3 4 3 2 4 6
10 19 22 26 23 40 45 50 46 47 52 50 38 41 39 46 39 32 38 31 27 24 18 14 8 6 7 4 3 3 2 1 2 4 7 8 5 4 4 4 3 3 3 4
12 16 25 27 20 41 50 52 53 34 57 64 53 53 46 41 43 34 32 30 27 24 19 16 9 6 8 4 2 3 2 2 3 5 8 10 8 9 4 3 6 6 6 3
4 13 30 35 13 16 60 47 58 48 52 62 63 46 58 50 51 36 29 33 30 26 20 18 12 7 9 6 1 2 3 3 5 6 6 7 8 10 11 6 4 4 9 10
7 12 32 34 19 26 48 37 51 40 51 52 57 52 52 53 40 35 32 34 30 27 22 17 12 8 9 10 4 1 3 3 5 7 7 6 5 6 10 11 11 8 5 8
9 14 19 20 18 10 41 46 61 59 34 47 57 61 52 45 39 35 34 34 30 29 23 18 13 10 8 11 8 3 2 3 3 6 7 5 4 3 6 9 12 14 14 11
8 14 17 20 20 18 37 58 56 58 45 31 45 49 44 46 45 39 38 35 32 31 24 19 16 10 9 9 11 8 3 3 4 4 6 6 4 4 5 7 9 10 14 20
13 9 17 23 28 30 21 47 50 46 48 44 33 37 41 44 46 46 42 37 38 33 27 22 18 12 9 8 10 11 7 4 5 6 6 7 7 8 8 9 11 13 13 16
12 12 14 24 30 31 31 25 28 32 40 37 30 34 42 41 42 49 44 38 38 34 28 24 21 15 12 9 9 10 10 8 5 7 7 7 8 10 11 12 14 16 17 17

GFSCGP_500_spd_027.txt.gz
Wind_Speed
69 71 63 50 54 54 57 53 47 49 48 48 44 49 41 27 33 35 32 29 32 35 29 30 31 36 41 42 35 35 30 36 32 31 30 26 26 28 30 33 35 35 40 44
71 65 52 59 58 59 56 57 52 51 48 44 41 42 39 31 31 33 32 29 33 30 26 26 29 32 40 38 33 36 32 33 28 29 27 24 26 28 31 33 34 38 40 41
69 55 62 63 63 63 59 57 51 48 50 44 47 49 40 29 27 29 30 34 29 22 25 28 31 36 38 37 30 26 30 27 25 26 24 25 28 30 31 32 33 37 37 38
67 59 62 60 64 66 64 56 54 52 51 49 46 52 40 27 28 28 31 29 20 21 24 26 28 33 33 28 21 22 26 23 25 22 24 27 29 29 29 30 32 35 35 33
56 61 63 62 59 66 56 56 55 53 52 50 49 46 19 26 23 24 25 21 19 22 27 27 28 29 26 18 19 22 21 23 22 22 25 28 26 26 25 28 31 33 31 31
56 58 58 59 61 62 59 59 55 53 51 53 42 44 18 22 23 28 19 20 19 23 28 27 26 22 16 14 18 19 21 19 19 22 26 24 25 23 26 28 30 27 28 27
49 54 56 57 61 59 61 60 57 57 55 49 36 41 29 13 20 17 18 18 19 24 24 20 16 17 13 18 16 20 16 16 19 23 22 22 22 24 24 26 26 26 23 19
39 46 54 56 57 60 60 62 62 61 58 48 42 48 22 17 17 9 15 19 21 19 15 15 11 14 16 14 18 13 13 17 20 21 19 21 22 22 23 23 23 21 19 15
34 42 38 55 58 52 56 65 52 59 57 54 47 44 37 29 17 5 9 11 17 11 12 10 10 11 12 15 12 11 15 18 19 18 18 20 18 21 24 23 22 19 15 14
29 39 34 43 59 65 60 53 58 56 57 58 49 45 37 26 14 12 12 15 15 12 11 10 9 10 13 10 9 13 16 16 16 15 17 17 17 21 21 19 16 14 10 8
26 34 35 42 54 60 57 57 61 59 56 53 49 45 15 18 15 18 15 17 13 17 13 12 11 14 10 8 11 13 13 14 13 14 15 16 20 17 15 14 13 11 8 7
26 19 31 42 46 51 63 63 57 62 57 50 46 30 24 13 24 22 8 12 16 16 13 12 13 10 7 7 8 9 12 11 12 14 14 16 15 13 12 13 10 9 5 6
13 18 22 41 41 41 57 62 56 55 55 53 48 36 29 13 11 22 22 19 18 16 14 12 13 10 7 6 8 8 10 10 10 14 15 14 10 11 9 11 8 7 4 5
15 18 21 29 37 48 47 66 58 49 60 53 53 40 15 14 14 26 21 19 13 18 14 14 13 10 6 6 8 7 9 9 10 13 11 10 10 9 9 10 8 5 3 4
8 5 16 26 38 45 44 69 62 60 58 59 48 33 24 18 22 24 23 18 13 15 13 15 12 8 6 6 7 6 8 7 9 8 8 10 10 6 7 9 6 4 2 4
7 7 15 21 34 45 43 63 65 64 60 56 40 38 23 24 27 27 24 15 17 18 15 17 10 6 6 7 5 6 5 6 7 7 10 10 7 4 6 8 6 5 2 4
11 6 6 13 26 37 45 60 56 60 54 49 46 36 24 33 33 35 25 21 21 21 16 14 8 5 4 5 5 5 4 3 6 9 9 8 4 6 5 4 3 4 2 2
2 6 3 5 14 23 40 43 48 46 44 56 46 32 28 35 39 40 32 30 30 24 18 12 6 4 4 5 4 3 3 1 5 6 7 5 4 5 6 7 5 2 2 2
6 5 8 9 12 35 40 49 53 53 44 48 53 49 35 42 36 38 31 27 31 29 17 8 4 4 6 4 2 2 2 1 3 5 6 7 5 8 7 9 6 3 1 4
8 8 10 8 15 35 16 55 55 49 38 37 40 38 38 46 45 36 31 31 28 21 14 10 3 4 7 3 1 0 1 1 2 3 7 9 11 9 7 7 8 9 8 4
9 9 4 18 15 9 46 59 52 44 39 30 41 46 47 43 37 32 26 28 28 21 16 9 4 2 8 5 1 0 2 1 2 2 5 8 11 13 12 7 6 8 10 5
11 8 3 15 33 16 23 52 51 45 25 42 41 46 40 41 43 35 30 30 28 24 16 10 7 4 8 8 3 2 2 2 2 2 4 5 9 12 14 12 9 8 9 11
3 11 4 25 15 3 30 57 45 48 33 43 41 49 53 40 39 37 33 29 28 24 20 13 9 7 7 10 6 2 2 3 3 2 3 4 6 9 10 11 16 15 15 17
4 7 11 14 18 11 34 48 41 53 42 43 50 50 45 47 44 37 38 28 27 27 24 19 13 9 9 9 10 5 2 3 4 1 2 3 5 7 9 8 13 20 21 19
1 4 4 12 23 18 13 29 31 29 40 36 39 50 46 41 42 38 33 34 30 28 28 22 17 12 11 8 9 9 5 2 5 3 1 2 5 7 8 8 10 13 16 20
7 4 5 9 15 17 16 5 17 40 29 41 43 38 52 45 39 37 36 34 29 27 24 19 18 15 11 9 7 9 8 4 3 6 4 3 5 7 9 12 13 15 17 19

GFSCGP_500_spd_030.txt.gz
Wind_Speed
69 70 64 55 57 59 59 59 56 52 49 48 44 46 42 37 37 37 33 30 30 32 27 24 21 24 28 29 32 35 35 35 33 32 32 35 33 32 27 25 27 31 34 37
72 64 56 60 66 62 59 58 53 54 53 49 47 45 45 37 35 35 29 30 33 26 25 20 23 25 28 31 36 40 36 32 25 27 28 32 31 28 25 28 29 31 34 37
70 61 62 64 64 64 62 60 54 54 51 48 51 48 41 34 32 30 31 29 30 25 19 21 23 24 28 33 35 33 36 27 24 23 26 29 26 25 27 29 30 33 34 33
68 62 65 67 65 65 63 60 58 56 53 51 47 49 41 30 30 32 29 30 25 17 19 22 23 25 28 33 32 27 23 23 20 22 26 23 22 25 28 28 31 31 30 31
58 64 64 65 64 65 59 60 61 61 57 55 51 49 25 31 30 26 28 27 16 16 20 24 24 26 30 27 23 21 21 19 18 23 23 20 21 25 26 28 27 29 28 26
56 57 60 61 61 63 60 62 64 61 58 61 46 46 24 24 20 22 21 17 16 15 22 20 22 24 19 17 17 19 18 17 19 21 18 19 22 23 24 24 25 25 25 22
45 46 53 56 60 61 62 63 62 62 65 53 46 46 20 15 16 26 21 18 14 15 16 18 20 19 15 14 18 18 16 16 18 18 18 20 21 22 22 21 23 24 22 17
24 31 48 51 56 59 61 60 61 61 60 53 52 50 32 16 23 14 18 17 12 14 15 19 20 18 16 17 17 14 13 15 16 16 18 19 21 21 19 21 23 20 17 14
22 25 34 42 50 58 56 62 57 61 59 58 52 47 40 25 26 8 12 8 5 9 15 15 13 9 12 12 11 12 12 14 15 15 17 18 19 20 20 23 17 14 11 11
26 26 23 26 45 55 55 55 56 60 59 59 52 48 41 28 28 21 18 9 10 15 9 11 11 7 8 9 10 10 11 13 13 15 15 16 18 19 22 17 13 10 8 8
20 19 26 33 35 46 53 55 56 59 60 56 51 49 42 25 23 19 19 8 10 7 9 12 11 9 10 10 9 9 11 11 12 12 13 16 18 20 15 13 9 8 6 5
21 21 20 25 42 42 49 57 59 61 60 56 52 48 30 34 30 24 17 10 8 2 9 12 11 10 9 10 8 8 10 12 11 11 14 16 17 13 12 8 7 7 5 4
12 19 15 12 38 45 49 56 61 60 60 57 53 37 32 28 26 19 16 13 5 7 12 12 8 10 11 9 8 10 11 9 10 12 15 16 11 9 9 6 6 7 5 2
13 14 16 11 28 48 47 54 62 60 61 55 54 36 40 30 28 26 19 13 10 9 13 14 11 13 11 9 8 9 9 8 10 11 12 9 10 9 7 5 6 5 4 3
14 8 6 7 24 44 46 49 65 65 61 60 55 45 41 35 28 18 15 15 11 10 12 10 10 12 9 9 7 8 6 9 8 10 10 11 11 9 6 5 5 2 4 4
12 4 11 5 13 36 48 43 61 66 62 62 57 52 39 29 33 24 20 17 14 16 14 9 10 11 9 7 5 5 7 8 7 10 11 10 10 4 5 4 5 3 2 5
12 12 8 6 6 23 43 40 56 64 61 61 59 54 35 35 37 33 28 26 17 16 13 11 11 9 8 5 4 5 8 6 6 9 9 9 5 4 2 1 0 3 3 5
8 4 6 11 10 17 31 39 41 61 56 60 59 53 50 47 43 35 44 32 22 21 18 12 9 7 7 6 3 4 6 4 6 9 8 5 5 4 6 6 5 3 3 6
6 3 9 4 12 17 31 37 37 60 56 55 49 60 54 47 43 30 27 29 26 23 21 14 8 8 7 6 2 3 3 2 4 6 7 7 5 4 7 10 8 3 3 6
1 3 7 8 7 20 22 29 49 56 50 44 60 55 56 43 37 38 30 30 23 27 16 11 10 9 9 6 1 1 1 1 3 5 8 9 8 6 6 8 7 11 5 6
8 7 5 7 8 30 17 39 54 54 45 52 63 60 52 42 35 40 37 30 27 24 18 14 11 11 11 7 3 2 1 1 3 5 8 8 10 9 7 5 7 7 6 8
9 3 1 4 17 8 25 33 52 51 47 55 64 61 50 46 39 39 33 34 32 27 20 15 12 12 12 9 4 3 3 1 2 4 6 6 7 10 13 10 6 8 9 10
8 12 11 8 12 9 26 37 52 43 48 46 64 54 43 32 42 47 43 38 36 29 22 16 12 11 13 12 7 4 4 2 3 4 4 5 6 7 11 15 15 16 14 8
5 9 6 7 10 18 33 40 49 57 40 64 54 43 44 39 40 36 33 30 30 29 25 19 14 12 12 15 11 6 4 4 4 4 4 6 5 7 11 17 18 18 15 9
8 3 3 3 8 11 31 33 42 32 39 61 56 46 40 35 39 41 33 30 30 29 30 24 17 13 12 13 15 10 6 3 4 5 6 7 7 7 10 14 16 20 22 20
10 7 8 8 7 10 10 39 32 38 33 44 55 45 42 46 41 37 35 30 27 28 24 25 21 16 14 12 14 14 9 5 5 4 6 8 9 10 12 16 17 21 22 24

GFSCGP_500_spd_033.txt.gz
Wind_Speed
72 73 65 60 60 63 61 63 63 60 58 55 57 55 51 48 46 44 42 43 44 39 36 30 31 34 36 34 36 38 39 36 36 35 33 29 31 30 32 33 33 30 30 32
77 71 64 65 68 65 64 63 61 58 58 58 53 54 50 46 44 38 36 38 37 35 28 29 31 34 34 31 35 36 34 34 35 35 32 30 29 29 30 33 32 31 32 33
76 69 69 70 70 67 66 65 60 59 57 56 54 57 48 43 42 39 38 35 32 31 28 30 32 29 27 33 34 33 31 32 29 29 27 30 28 25 29 32 29 30 32 32
70 68 71 71 71 68 67 64 61 61 59 57 53 57 48 37 37 37 37 33 30 29 27 28 25 25 30 31 31 30 30 29 25 26 27 25 22 25 30 28 28 29 27 26
59 67 71 72 66 68 64 65 62 63 61 59 55 56 37 36 35 31 28 29 27 28 27 24 26 31 28 28 29 28 26 24 22 20 19 18 22 25 25 26 26 25 24 24
50 52 58 63 65 66 64 66 62 62 63 65 53 54 28 29 31 27 31 34 31 27 22 25 28 26 24 28 25 23 21 21 17 17 15 19 20 23 25 24 23 22 22 24
33 43 51 57 60 60 64 65 64 65 65 56 51 54 28 18 30 26 31 29 19 18 24 22 21 22 26 26 23 21 18 17 16 15 18 20 20 22 22 21 20 21 23 22
20 24 38 46 54 55 61 64 64 66 63 54 49 51 36 26 20 24 22 19 18 23 19 22 21 21 22 22 22 16 14 13 15 17 19 18 18 19 18 18 20 23 20 16
8 15 20 23 40 49 54 58 55 56 59 57 51 45 42 31 26 24 14 16 19 18 19 18 17 17 15 15 13 11 11 13 16 18 16 16 15 15 16 18 22 18 13 12
12 16 16 22 27 44 49 53 54 57 56 57 53 48 43 34 24 19 22 22 19 19 18 15 18 9 9 6 7 9 12 14 15 14 13 12 13 14 16 20 16 11 9 10
16 19 21 22 23 34 45 50 54 55 55 55 52 49 46 36 27 30 24 24 19 19 17 16 13 7 8 9 9 11 13 13 11 11 11 12 13 15 17 13 10 6 7 7
10 16 18 18 30 33 37 48 53 57 57 55 55 53 49 40 32 33 25 19 16 17 15 14 8 7 10 10 11 12 13 9 9 11 10 12 16 15 10 10 5 5 6 4
15 13 17 14 24 34 40 44 53 59 60 59 59 55 43 31 41 32 26 24 21 17 13 10 8 7 10 9 12 11 9 8 10 9 11 13 10 7 11 8 4 4 5 3
17 16 21 17 19 28 40 45 49 60 61 57 54 55 34 40 36 34 33 30 27 15 11 8 8 9 10 9 11 8 9 9 8 9 11 10 10 11 12 8 5 3 3 4
17 17 19 17 20 24 33 47 46 61 64 61 53 56 40 47 38 41 36 34 26 15 7 7 8 9 7 9 10 8 8 8 7 9 10 11 12 11 9 7 5 3 3 6
19 14 18 15 16 24 28 40 52 59 64 62 56 46 51 48 47 42 38 33 26 15 10 9 7 6 8 9 8 7 7 6 7 9 12 13 11 7 5 6 5 4 5 7
16 18 19 11 15 19 21 29 46 54 62 63 60 51 56 54 49 39 39 34 24 16 13 10 10 8 7 7 6 6 6 6 6 8 12 12 7 2 1 2 4 7 7 9
16 17 20 16 13 18 12 22 39 46 57 65 65 52 58 53 48 45 38 33 26 21 17 13 11 9 7 7 7 5 4 4 4 8 11 4 2 4 2 2 4 8 7 7
4 7 8 6 10 10 13 21 37 36 52 63 60 63 60 54 51 46 41 33 32 27 20 15 14 9 8 9 7 4 3 2 3 6 4 2 3 3 5 4 3 7 9 8
4 6 7 11 14 3 15 19 33 29 41 44 54 70 61 56 54 46 36 35 33 28 25 16 14 10 11 10 6 3 4 2 2 2 6 6 4 4 3 3 5 5 10 12
9 6 6 4 6 4 16 22 30 27 36 35 47 67 61 60 53 42 41 35 33 32 24 19 14 13 15 11 6 7 5 3 3 4 4 7 9 4 2 3 2 2 7 11
9 5 2 5 7 3 11 21 31 33 37 45 36 63 64 58 52 46 38 39 47 32 25 20 16 16 18 12 8 9 8 5 4 6 5 5 6 7 3 2 2 4 11 11
12 12 9 7 13 11 1 24 31 36 44 27 37 52 66 59 49 41 48 33 37 30 27 22 17 17 20 14 10 9 9 7 5 5 4 5 6 7 8 10 9 8 8 11
6 5 4 5 7 10 13 33 34 41 41 38 41 50 58 56 44 34 38 49 43 34 30 21 17 18 21 16 12 9 9 8 7 5 5 5 7 9 12 10 8 4 4 10
9 9 5 11 5 9 22 27 35 47 43 40 44 58 53 53 41 40 33 51 45 40 32 25 18 15 19 18 13 11 9 8 9 6 6 7 9 10 12 14 18 15 13 13
9 11 12 17 12 12 24 33 27 31 38 26 43 55 51 48 39 39 37 23 42 36 35 26 21 15 14 17 14 11 9 8 10 8 8 8 12 14 17 17 19 21 19 15

GFSCGP_500_spd_036.txt.gz
Wind_Speed
75 76 67 64 67 65 66 66 65 68 68 68 69 70 64 62 57 54 48 45 45 43 45 45 45 47 46 45 41 39 39 41 44 44 43 41 33 28 28 32 31 29 33 35
74 75 73 71 73 71 69 69 66 64 64 65 63 65 63 61 56 49 47 44 44 43 41 41 40 40 42 40 40 38 39 42 43 41 40 33 30 28 30 30 29 29 33 37
71 72 74 78 77 75 73 71 66 65 64 59 58 63 56 51 51 45 43 41 37 36 38 37 37 37 39 40 39 37 40 43 40 39 35 32 32 31 27 26 27 30 34 34
54 67 69 72 79 78 77 72 67 66 63 60 57 64 55 44 42 41 38 34 31 34 34 33 34 38 40 37 33 37 38 36 37 37 32 27 23 21 22 25 26 32 31 30
35 49 53 62 70 75 73 72 69 68 64 61 58 62 49 41 41 35 30 31 34 34 33 35 38 38 34 29 34 38 33 33 37 32 23 19 18 19 20 24 27 29 28 23
17 36 42 46 56 64 67 68 65 67 66 69 55 58 46 36 34 32 34 33 33 34 34 34 31 27 30 35 33 32 33 34 32 22 19 18 18 19 21 23 25 24 21 21
19 20 30 41 47 53 63 67 65 65 68 59 56 57 33 27 34 37 35 38 33 33 29 26 24 29 27 28 29 34 34 31 22 19 18 18 18 19 22 22 20 20 19 22
13 19 17 31 41 43 50 59 63 69 66 58 56 49 33 34 28 12 30 34 33 27 26 24 25 27 27 25 29 29 25 19 18 16 18 17 18 21 21 17 17 18 21 23
3 5 11 17 28 36 43 49 52 53 59 60 57 43 38 38 35 26 8 17 24 20 22 22 25 23 21 24 20 19 16 17 15 16 16 17 19 19 14 15 16 20 19 19
15 11 12 13 15 24 35 43 46 51 54 55 53 47 44 42 36 36 36 21 22 23 23 25 22 16 17 16 12 12 13 15 13 14 16 17 15 13 14 16 18 16 16 15
14 13 13 12 10 16 24 39 45 46 49 53 51 51 50 46 39 36 34 23 21 23 24 21 19 15 14 12 12 11 13 11 12 15 15 14 11 13 15 16 15 14 12 12
9 12 12 17 22 26 28 27 40 50 51 52 52 53 53 46 42 32 31 23 25 24 19 18 16 15 14 13 12 12 12 11 13 13 12 9 12 16 15 12 12 11 10 10
11 13 14 15 18 23 26 31 37 47 55 57 56 53 53 50 48 37 38 32 26 25 20 18 15 16 12 12 10 10 11 12 10 9 9 9 12 9 12 12 10 10 8 8
15 13 14 15 16 18 24 29 33 45 56 58 57 56 49 26 32 39 46 36 33 29 23 20 17 15 10 9 8 9 11 10 7 8 8 10 10 12 14 12 9 10 7 6
21 17 15 16 17 21 22 24 33 44 54 58 57 59 52 30 31 39 38 38 37 29 25 20 17 11 10 9 8 10 10 8 6 7 8 10 11 12 12 9 7 10 7 6
22 19 18 20 21 23 23 23 26 39 53 58 59 60 48 39 39 45 46 40 35 32 27 21 13 11 10 8 9 9 8 6 7 7 9 11 12 12 9 7 8 11 8 7
19 17 21 16 18 24 20 18 22 35 53 60 62 59 47 49 46 50 46 41 38 34 30 20 16 14 10 7 9 8 5 6 6 6 9 11 12 7 5 5 7 9 9 7
6 15 19 17 22 25 19 18 21 34 51 59 62 56 55 52 50 50 49 41 37 34 29 23 17 13 11 8 6 6 6 5 5 5 8 7 2 2 2 3 4 8 9 8
3 9 14 15 15 17 16 15 16 29 48 63 66 53 60 55 53 52 49 43 37 34 30 23 21 15 12 9 7 7 5 4 4 2 4 1 4 4 2 2 4 7 9 9
13 10 12 11 10 12 8 10 11 20 35 52 58 53 61 61 57 52 47 42 39 33 27 23 21 16 13 11 9 8 6 5 3 4 4 1 4 6 5 3 1 5 10 9
8 12 11 10 7 6 5 9 11 20 31 38 47 55 68 63 58 52 50 44 39 30 28 22 23 20 16 13 10 9 8 7 5 6 4 3 4 1 5 5 4 3 8 11
9 7 7 9 9 15 8 8 13 19 20 28 41 66 61 61 60 54 49 45 36 32 25 21 20 17 16 14 11 11 10 9 8 7 5 3 2 3 2 3 4 5 6 12
10 11 7 7 7 11 8 11 17 16 18 27 45 53 63 60 62 56 47 43 39 32 25 20 19 15 18 16 11 12 12 10 9 8 6 5 4 6 6 5 5 5 7 13
10 8 10 7 8 15 9 16 9 17 17 33 35 47 61 60 52 50 46 41 42 39 27 24 19 17 20 16 12 13 12 11 9 8 8 7 6 8 6 4 1 4 8 12
9 8 7 3 2 13 15 13 9 25 34 32 40 45 61 61 57 47 45 38 41 35 35 32 24 20 25 19 13 13 12 10 9 9 10 9 8 8 9 10 10 9 9 11
7 9 6 7 9 14 17 8 21 28 21 33 28 44 61 57 55 45 42 40 36 47 40 35 25 22 26 21 15 12 12 11 11 11 12 10 11 11 11 16 17 12 11 12

GFSCGP_500_spd_042.txt.gz
Wind_Speed
58 59 61 60 62 63 68 70 69 68 67 67 69 66 59 59 66 65 73 69 67 70 65 60 54 50 52 56 56 57 56 57 57 55 56 57 45 41 41 41 40 40 42 42
52 55 61 65 69 67 70 73 72 72 72 69 71 68 61 61 62 64 62 72 74 67 63 65 60 52 48 50 54 55 57 54 54 53 52 50 42 40 41 40 39 42 41 39
52 54 57 61 66 70 73 74 74 76 76 73 72 72 67 62 60 60 62 58 63 60 60 65 60 51 50 50 51 55 51 48 48 47 46 42 41 38 39 38 39 38 38 34
47 43 46 50 58 61 69 71 74 78 80 78 74 73 70 64 60 57 53 55 54 53 47 49 49 48 49 48 48 48 46 45 41 40 39 37 36 37 37 38 34 32 31 28
31 35 33 36 33 34 45 54 66 73 79 80 77 77 68 66 62 53 49 44 45 43 41 42 43 44 46 46 46 42 38 36 34 33 30 32 35 35 35 34 30 30 28 26
25 23 26 26 27 31 30 32 37 59 51 66 79 68 69 62 58 52 46 40 39 38 41 39 41 43 42 41 40 37 32 29 27 27 29 32 33 33 33 29 29 27 27 26
15 21 25 26 30 25 25 23 29 35 51 64 76 59 71 60 54 49 47 42 39 38 36 38 39 40 38 37 36 31 29 26 26 26 28 31 31 32 28 28 26 26 26 27
18 20 19 15 12 17 25 20 28 28 34 43 55 54 69 61 43 48 48 41 39 38 38 38 38 38 32 29 27 29 27 24 26 28 29 29 31 27 27 25 24 25 27 25
21 17 20 14 17 15 21 26 25 32 27 32 37 40 65 58 52 40 31 41 38 39 41 38 37 32 27 27 27 27 25 26 27 27 28 30 26 26 25 23 23 26 24 25
17 21 18 15 14 9 9 26 24 25 27 15 26 32 60 58 53 43 32 31 39 43 42 37 31 29 28 28 29 25 25 26 25 26 27 24 24 24 22 22 24 22 24 26
16 19 15 17 14 8 10 18 16 23 28 18 19 25 39 49 52 46 35 27 20 32 36 37 35 32 28 30 25 24 23 24 25 22 20 21 21 20 21 22 22 23 26 25
18 16 16 14 19 19 15 19 24 27 23 25 20 15 42 56 50 45 50 41 26 24 28 30 32 32 30 24 23 23 23 23 20 19 19 19 19 20 21 20 23 25 22 19
18 17 15 10 10 18 16 10 23 20 29 33 24 11 29 47 49 48 44 46 41 31 23 20 28 26 24 24 24 21 20 21 20 20 19 18 19 21 19 20 20 18 19 19
19 17 17 16 17 15 15 13 12 17 26 30 34 34 18 33 43 45 43 46 46 38 29 27 22 26 26 24 23 20 19 21 20 19 17 18 19 19 18 19 20 20 20 19
19 13 16 17 15 16 15 18 18 17 18 23 28 35 32 44 45 46 41 45 51 44 39 30 28 26 25 24 21 20 20 19 18 17 16 18 18 17 18 19 19 19 18 15
7 8 11 13 15 15 14 16 21 24 20 23 18 41 42 47 45 47 43 45 44 43 39 33 28 26 24 22 21 21 21 19 18 15 16 17 17 18 19 19 18 15 13 12
12 5 8 10 16 18 11 11 18 23 27 28 24 38 40 45 46 49 53 48 43 43 39 35 28 25 23 22 23 21 20 18 15 15 17 17 17 18 19 15 12 12 11 11
15 10 8 10 15 13 14 14 16 22 25 29 25 36 47 49 49 51 57 54 49 46 40 32 29 26 25 24 22 21 20 16 15 16 16 15 16 15 10 7 7 8 9 10
11 16 20 23 17 14 17 16 10 19 18 25 21 32 52 53 53 55 55 56 52 46 39 33 31 28 26 24 22 21 17 15 15 15 13 13 13 11 9 4 3 6 7 10
13 12 7 10 13 14 9 9 13 8 8 14 20 40 57 54 53 52 57 58 54 47 38 34 30 28 27 25 22 19 15 15 14 13 11 8 8 11 8 7 5 3 6 9
13 9 11 16 15 15 19 16 10 12 6 11 24 46 57 56 49 54 56 58 52 45 38 36 31 28 27 24 21 17 16 14 13 12 9 7 6 6 7 6 4 3 4 9
16 14 13 11 15 19 21 17 9 10 12 10 25 49 56 58 51 56 58 56 50 44 38 35 31 29 25 22 20 17 15 13 12 11 10 8 5 4 6 8 7 6 5 8
17 15 16 12 10 12 13 10 1 7 9 21 30 50 60 58 55 58 59 54 48 42 38 36 32 27 23 22 20 17 14 13 12 11 9 8 6 5 4 5 3 3 7 11
21 15 18 12 7 9 13 3 4 7 18 30 36 55 62 58 57 61 59 53 49 44 40 35 30 25 23 21 19 15 13 13 12 10 7 7 5 5 4 6 5 4 7 12
22 24 22 11 5 8 13 10 12 12 27 38 43 55 64 60 57 67 58 53 47 42 37 33 29 27 24 22 18 15 14 12 11 9 7 6 5 2 3 6 6 8 10 13
23 24 21 17 10 9 13 13 14 15 26 41 47 52 67 60 52 60 60 52 46 43 34 30 29 28 24 23 18 16 15 12 10 9 8 8 7 5 3 5 6 10 14 14

GFSCGP_500_spd_045.txt.gz
Wind_Speed
50 52 54 57 59 59 62 64 65 62 61 43 59 67 62 60 61 60 63 66 71 69 63 65 65 72 67 56 53 51 49 51 55 56 55 56 55 57 54 45 45 41 38 39
49 52 54 58 61 64 67 68 66 66 65 55 68 72 68 65 64 63 63 65 69 70 70 66 70 74 67 60 59 51 52 54 56 57 56 54 53 50 46 42 41 35 37 36
43 46 49 52 56 59 63 67 69 72 72 73 75 75 69 69 69 66 64 64 66 68 68 71 72 68 65 65 65 60 58 56 60 58 53 49 48 46 40 37 32 33 34 36
43 44 46 47 49 53 58 57 62 68 70 76 73 78 74 70 70 68 66 63 66 65 64 59 56 65 70 65 61 64 59 59 60 52 48 45 42 40 33 29 29 31 33 36
38 39 39 41 43 37 47 45 51 58 67 71 75 77 78 73 74 69 68 66 62 60 59 56 54 53 57 58 61 66 61 62 53 46 43 38 35 31 28 28 28 30 35 32
31 19 20 26 32 32 32 39 36 39 41 52 74 66 82 77 76 72 70 67 65 57 51 50 49 49 50 47 49 49 53 52 43 39 34 32 28 29 26 26 28 32 32 30
21 18 19 27 25 29 28 24 27 33 39 48 44 51 61 79 64 67 67 67 60 57 50 43 46 48 48 44 46 46 45 41 35 33 32 29 26 27 26 27 28 32 30 28
21 22 21 30 25 25 17 17 24 27 28 32 35 49 53 49 38 36 70 66 58 52 45 43 45 44 40 43 44 40 38 36 32 33 29 26 27 26 28 28 30 30 28 28
21 21 23 18 21 17 14 23 17 28 28 35 37 43 34 48 43 40 53 58 52 53 49 45 43 38 41 42 38 34 34 31 31 30 27 27 27 28 27 28 31 26 27 26
21 23 18 16 16 17 12 10 24 28 25 32 21 23 20 31 52 30 32 45 53 48 48 49 45 41 39 38 33 33 30 30 29 26 25 26 27 27 27 28 25 26 26 25
24 26 15 16 16 14 12 13 19 23 20 23 19 18 22 20 32 41 24 40 45 52 48 45 42 38 37 34 33 31 31 28 25 25 25 26 25 24 23 23 24 24 24 24
21 24 22 15 14 17 20 19 20 27 23 16 25 19 24 25 27 33 44 51 47 36 43 43 41 40 37 32 32 32 29 26 25 25 26 22 20 19 21 22 23 23 23 25
19 19 20 13 13 22 21 20 22 21 18 30 31 22 36 20 33 47 50 56 49 39 33 38 42 41 38 32 34 29 28 26 24 24 21 20 21 21 21 21 21 21 24 23
16 17 21 19 21 23 14 11 14 22 22 28 26 25 17 34 30 15 30 49 47 33 33 30 30 37 39 36 29 29 26 23 23 21 21 20 21 21 20 20 20 22 23 23
17 10 18 18 22 19 16 16 17 18 23 31 29 26 23 27 34 26 36 56 56 42 37 28 28 27 28 32 31 27 26 23 21 20 20 21 20 19 19 20 21 22 22 21
10 10 11 12 14 15 17 17 20 22 22 30 31 31 25 25 30 36 46 47 52 46 41 30 29 28 31 30 27 26 23 20 19 20 20 18 18 18 19 20 21 23 22 16
20 17 12 5 15 16 15 16 21 24 26 28 33 30 27 27 25 33 45 48 48 51 44 35 30 31 30 27 27 24 21 20 19 19 16 16 16 18 17 19 22 20 14 14
20 16 20 19 18 16 10 19 25 26 22 29 28 25 32 35 36 45 48 48 48 52 46 37 32 31 28 28 26 22 21 19 17 15 15 15 16 15 16 17 12 11 11 10
19 20 21 11 15 17 11 18 20 17 23 27 19 22 30 46 42 48 48 46 51 49 46 39 36 32 28 26 22 21 19 16 14 14 13 13 13 15 13 10 9 8 9 10
18 16 13 15 12 12 9 14 19 15 15 17 16 21 33 44 48 47 42 54 52 51 46 41 33 31 28 24 21 21 16 14 14 12 11 12 13 12 11 11 10 7 7 9
14 12 11 15 16 17 17 26 25 17 14 19 17 23 33 42 52 55 55 55 52 49 41 38 33 31 28 24 22 19 15 15 12 11 10 10 9 8 11 12 9 6 5 9
18 17 15 17 16 15 21 17 14 15 13 11 17 25 45 50 53 52 55 54 49 46 40 35 33 30 26 23 22 17 16 13 11 11 9 10 8 7 8 10 9 8 7 8
19 20 20 24 19 20 14 15 18 8 10 12 17 29 46 51 52 49 58 57 49 45 40 35 32 28 25 23 19 17 15 12 11 10 9 9 8 9 8 5 8 9 8 9
21 19 23 27 15 15 15 17 5 8 11 13 29 34 49 56 48 50 54 55 51 45 38 36 32 28 25 21 18 17 15 12 11 9 8 7 6 6 7 7 8 8 7 9
21 22 26 26 16 15 16 5 7 9 13 26 39 46 56 52 50 50 51 52 49 44 38 39 32 28 24 21 18 18 14 12 10 8 7 4 4 5 6 7 8 7 7 10
24 22 24 28 22 17 14 14 11 11 19 36 46 52 59 52 53 47 49 51 45 41 34 30 29 27 24 19 20 17 14 13 10 7 6 4 5 3 4 6 8 10 10 12

GFSCGP_500_spd_048.txt.gz
Wind_Speed
40 42 44 46 49 50 55 57 60 58 60 56 38 57 60 57 57 57 57 56 69 73 72 66 60 55 59 67 68 60 52 50 51 50 52 48 45 49 53 53 47 44 44 35
41 43 45 50 53 56 59 61 59 61 63 67 65 67 61 61 60 60 59 59 57 60 58 61 60 60 64 67 66 60 51 50 51 52 52 50 48 52 55 53 45 43 41 29
40 41 44 48 50 53 55 59 62 66 67 69 67 71 67 65 66 63 64 62 59 60 61 61 63 67 69 72 71 63 54 53 54 54 55 52 53 53 57 55 44 40 31 25
37 38 41 44 47 48 52 51 56 61 64 70 63 72 71 66 66 67 63 61 61 61 60 63 64 63 64 62 65 67 64 60 55 53 54 53 55 52 55 52 44 32 27 24
32 32 37 40 43 46 53 51 52 55 59 63 65 64 73 69 69 68 68 64 63 63 62 61 63 64 55 50 53 56 57 61 62 57 55 58 56 53 51 45 38 28 25 24
31 28 33 39 32 31 35 36 43 48 44 57 68 58 74 72 71 71 70 68 66 67 61 60 61 57 56 53 50 52 49 48 51 55 56 54 47 46 45 38 30 28 24 26
26 25 34 29 30 22 21 24 32 38 35 47 48 39 56 69 71 70 68 55 50 43 55 62 60 58 51 50 51 48 47 41 39 45 42 38 42 40 40 31 30 25 24 28
30 32 25 26 25 33 28 23 31 36 29 28 24 35 38 54 59 59 68 59 51 54 60 63 56 52 49 52 47 44 44 41 42 39 36 36 38 38 33 31 27 25 26 28
29 29 25 23 23 22 18 24 24 21 23 29 32 33 36 38 43 51 48 39 36 60 59 62 54 47 52 50 46 40 42 41 41 38 36 34 34 34 29 29 25 28 28 25
31 38 27 25 21 20 17 19 19 21 28 33 22 25 19 19 21 17 39 35 40 41 56 60 52 45 48 48 44 40 38 39 37 35 31 32 31 30 27 27 28 24 22 23
31 36 22 20 18 13 17 17 19 27 24 24 27 20 9 26 30 31 44 18 26 42 56 53 49 51 49 43 39 39 39 36 33 30 30 29 27 27 26 26 21 19 20 21
26 29 25 19 15 21 29 19 30 22 28 23 28 26 30 20 32 38 39 32 34 45 45 50 46 45 45 43 40 39 34 33 30 31 27 27 27 24 24 21 20 19 19 19
22 20 22 19 10 22 25 26 27 30 30 28 29 23 24 22 33 43 39 35 24 40 46 42 46 41 42 43 43 37 35 33 30 27 27 25 23 22 20 21 19 18 18 17
20 18 22 21 22 24 27 12 9 22 31 26 22 28 29 36 27 49 31 26 13 46 42 39 40 41 42 42 39 36 36 32 28 27 24 22 22 20 20 18 18 18 16 17
21 17 21 22 19 24 20 21 17 20 21 27 30 29 33 30 41 43 29 27 10 41 35 33 37 42 42 39 37 37 32 26 26 24 22 21 20 20 17 17 18 15 16 20
20 25 25 12 19 20 16 17 20 18 25 25 28 27 23 30 28 13 19 16 37 43 32 36 35 34 34 37 34 32 29 25 24 22 20 18 17 16 17 16 15 15 19 22
21 26 25 17 22 17 14 12 20 31 28 34 32 27 24 22 19 20 23 32 46 47 40 37 33 28 30 31 32 29 26 24 22 20 17 16 15 15 13 13 14 17 20 18
21 24 28 22 16 18 16 18 24 20 22 26 28 31 25 26 30 30 22 27 38 50 48 38 34 33 35 30 28 28 25 24 20 17 15 14 13 12 12 12 14 13 12 12
21 20 25 17 17 17 14 13 14 17 4 30 23 23 24 21 32 26 21 38 43 51 43 37 33 33 29 30 29 25 25 20 17 14 12 12 10 11 10 12 9 9 9 10
19 19 21 17 21 18 17 15 18 23 12 24 26 21 20 24 31 29 32 37 39 46 43 39 33 32 31 30 26 24 20 17 14 11 12 8 10 9 10 8 10 9 10 10
18 21 23 21 20 22 24 23 20 28 16 17 25 22 25 32 37 35 40 39 49 44 42 38 32 34 30 27 24 21 18 14 10 12 8 9 7 6 5 7 9 9 8 8
19 22 23 27 25 23 24 27 27 23 23 17 21 22 28 35 41 40 44 44 44 46 44 38 38 38 31 26 24 19 15 10 12 10 8 8 5 4 4 5 9 9 8 8
19 24 26 26 31 27 16 29 26 27 22 13 17 23 29 43 36 47 43 41 46 47 41 40 35 37 31 25 21 16 11 13 12 10 9 6 5 6 6 7 9 9 9 10
19 21 23 29 29 27 29 31 29 29 14 14 17 23 37 51 41 51 40 43 45 43 40 38 27 36 30 22 17 12 13 13 11 9 7 5 5 6 5 4 7 7 8 9
19 24 25 24 29 32 30 29 25 16 7 15 16 26 37 45 52 47 45 48 45 43 37 32 27 25 23 19 15 13 14 13 11 9 6 5 4 3 4 6 8 9 7 8
21 28 27 25 30 38 29 15 7 5 11 12 32 37 40 50 52 48 49 47 47 41 37 32 29 24 20 17 14 15 15 12 11 9 6 4 3 3 5 8 9 11 11 9